Location: Boiro
(42.6475°N, 8.8834°W)
Time: 06:48:24
(UTC+01:00)

Envisat - Pass Details

Date: 24 October 2021
Orbit: 764 x 766 km, 98.2° (Epoch: 04 December)

Event Time Altitude Azimuth Distance (km) Brightness Sun altitude
Rises 06:19:49 0° 33° (NNE) 3,240 6.8 -29.9°
Reaches altitude 10° 06:23:20 10° 58° (ENE) 2,307 6.3 -29.3°
Maximum altitude 06:25:56 14° 89° (E) 2,037 6.0 -28.8°
Drops below altitude 10° 06:28:31 10° 120° (ESE) 2,298 6.0 -28.3°
Sets 06:31:59 0° 145° (SE) 3,217 6.5 -27.7°
